TimeCST,TemperatureF,Dew PointF,Humidity,Sea Level PressureIn,VisibilityMPH,Wind Direction,Wind SpeedMPH,Gust SpeedMPH,PrecipitationIn,Events,Conditions,WindDirDegrees,DateUTC
12:15 AM,8.6,-0.4,67,29.64,10.0,NW,12.7,-,N/A,,Overcast,320,2013-01-31 06:15:00
12:35 AM,8.6,1.4,73,29.64,10.0,NW,13.8,18.4,N/A,,Overcast,320,2013-01-31 06:35:00
12:55 AM,8.6,1.4,73,29.64,7.0,NNW,12.7,18.4,N/A,,Overcast,330,2013-01-31 06:55:00
1:15 AM,8.6,1.4,73,29.65,7.0,NW,10.4,-,N/A,Snow,Light Snow,320,2013-01-31 07:15:00
1:35 AM,6.8,1.4,79,29.65,10.0,NW,8.1,-,N/A,,Overcast,310,2013-01-31 07:35:00
1:55 AM,6.8,1.4,79,29.66,10.0,NW,9.2,-,N/A,,Overcast,310,2013-01-31 07:55:00
2:15 AM,6.8,-0.4,72,29.66,10.0,NW,13.8,17.3,N/A,,Overcast,310,2013-01-31 08:15:00
2:35 AM,6.8,-0.4,72,29.67,10.0,WNW,11.5,18.4,N/A,,Overcast,300,2013-01-31 08:35:00
2:55 AM,6.8,-0.4,72,29.67,10.0,NW,10.4,-,N/A,,Overcast,310,2013-01-31 08:55:00
3:15 AM,6.8,-0.4,72,29.67,10.0,NW,10.4,16.1,N/A,,Overcast,310,2013-01-31 09:15:00
3:35 AM,5.0,-0.4,78,29.67,10.0,NW,10.4,-,N/A,,Overcast,310,2013-01-31 09:35:00
3:55 AM,5.0,-0.4,78,29.68,10.0,WNW,10.4,-,N/A,,Overcast,300,2013-01-31 09:55:00
4:15 AM,5.0,-0.4,78,29.68,10.0,WNW,10.4,-,N/A,,Overcast,300,2013-01-31 10:15:00
4:35 AM,5.0,-0.4,78,29.69,10.0,WNW,10.4,-,N/A,,Overcast,300,2013-01-31 10:35:00
4:55 AM,5.0,-0.4,78,29.69,7.0,WNW,11.5,-,N/A,,Overcast,300,2013-01-31 10:55:00
5:15 AM,5.0,-0.4,78,29.70,10.0,NW,11.5,-,N/A,,Overcast,310,2013-01-31 11:15:00
5:35 AM,3.2,-2.2,78,29.70,10.0,NW,12.7,-,N/A,,Overcast,310,2013-01-31 11:35:00
5:55 AM,3.2,-2.2,78,29.71,10.0,WNW,12.7,17.3,N/A,,Overcast,300,2013-01-31 11:55:00
6:15 AM,3.2,-4.0,72,29.71,10.0,WNW,11.5,16.1,N/A,,Mostly Cloudy,300,2013-01-31 12:15:00
6:35 AM,3.2,-4.0,72,29.73,10.0,WNW,12.7,-,N/A,,Overcast,300,2013-01-31 12:35:00
6:55 AM,3.2,-4.0,72,29.74,10.0,WNW,10.4,-,N/A,,Mostly Cloudy,300,2013-01-31 12:55:00
7:15 AM,1.4,-4.0,78,29.75,10.0,WNW,11.5,-,N/A,,Mostly Cloudy,300,2013-01-31 13:15:00
7:35 AM,1.4,-4.0,78,29.77,10.0,WNW,10.4,18.4,N/A,,Mostly Cloudy,300,2013-01-31 13:35:00
7:55 AM,1.4,-4.0,78,29.77,5.0,WNW,12.7,18.4,N/A,,Haze,300,2013-01-31 13:55:00
8:15 AM,1.4,-4.0,78,29.78,7.0,NW,10.4,17.3,N/A,,Overcast,310,2013-01-31 14:15:00
8:35 AM,1.4,-4.0,78,29.79,10.0,WNW,13.8,-,N/A,,Overcast,300,2013-01-31 14:35:00
8:55 AM,3.2,-4.0,72,29.80,7.0,WNW,13.8,21.9,N/A,,Overcast,300,2013-01-31 14:55:00
9:15 AM,3.2,-4.0,72,29.81,10.0,NW,15.0,18.4,N/A,,Overcast,310,2013-01-31 15:15:00
9:35 AM,3.2,-5.8,66,29.81,10.0,NW,16.1,20.7,N/A,,Mostly Cloudy,310,2013-01-31 15:35:00
9:55 AM,3.2,-5.8,66,29.83,7.0,NW,16.1,-,N/A,,Overcast,320,2013-01-31 15:55:00
10:15 AM,3.2,-5.8,66,29.84,7.0,NW,16.1,-,N/A,,Overcast,310,2013-01-31 16:15:00
10:35 AM,3.2,-5.8,66,29.85,7.0,NW,16.1,24.2,N/A,,Overcast,320,2013-01-31 16:35:00
10:55 AM,3.2,-5.8,66,29.86,10.0,NW,15.0,23.0,N/A,,Overcast,320,2013-01-31 16:55:00
11:15 AM,3.2,-5.8,66,29.86,10.0,WNW,13.8,-,N/A,,Overcast,300,2013-01-31 17:15:00
11:35 AM,5.0,-5.8,61,29.86,10.0,NW,17.3,-,N/A,,Mostly Cloudy,310,2013-01-31 17:35:00
11:55 AM,5.0,-5.8,61,29.87,10.0,NW,16.1,-,N/A,,Scattered Clouds,310,2013-01-31 17:55:00
12:15 PM,3.2,-5.8,66,29.88,10.0,NW,15.0,18.4,N/A,,Scattered Clouds,310,2013-01-31 18:15:00
12:35 PM,5.0,-5.8,61,29.88,10.0,WNW,15.0,-,N/A,,Mostly Cloudy,300,2013-01-31 18:35:00
12:55 PM,3.2,-5.8,66,29.89,10.0,WNW,16.1,21.9,N/A,,Mostly Cloudy,300,2013-01-31 18:55:00
1:15 PM,5.0,-5.8,61,29.89,10.0,WNW,10.4,-,N/A,,Scattered Clouds,300,2013-01-31 19:15:00
1:35 PM,5.0,-5.8,61,29.89,10.0,NW,12.7,20.7,N/A,,Mostly Cloudy,310,2013-01-31 19:35:00
1:55 PM,5.0,-4.0,66,29.90,10.0,WNW,17.3,24.2,N/A,,Overcast,290,2013-01-31 19:55:00
2:15 PM,5.0,-5.8,61,29.90,10.0,NW,17.3,-,N/A,,Overcast,310,2013-01-31 20:15:00
2:35 PM,5.0,-5.8,61,29.91,10.0,NW,15.0,20.7,N/A,,Overcast,310,2013-01-31 20:35:00
2:55 PM,5.0,-5.8,61,29.92,10.0,WNW,15.0,20.7,N/A,,Mostly Cloudy,300,2013-01-31 20:55:00
3:15 PM,5.0,-5.8,61,29.93,10.0,WNW,13.8,24.2,N/A,,Mostly Cloudy,300,2013-01-31 21:15:00
3:35 PM,5.0,-5.8,61,29.94,10.0,WNW,12.7,19.6,N/A,,Overcast,300,2013-01-31 21:35:00
3:55 PM,5.0,-5.8,61,29.95,10.0,NW,15.0,-,N/A,,Overcast,310,2013-01-31 21:55:00
4:15 PM,5.0,-5.8,61,29.96,10.0,WNW,13.8,18.4,N/A,,Overcast,300,2013-01-31 22:15:00
4:35 PM,3.2,-5.8,66,29.97,10.0,West,19.6,-,N/A,,Overcast,280,2013-01-31 22:35:00
4:55 PM,3.2,-5.8,66,29.98,10.0,WNW,13.8,-,N/A,,Mostly Cloudy,300,2013-01-31 22:55:00
5:15 PM,3.2,-5.8,66,29.99,10.0,WNW,15.0,23.0,N/A,,Scattered Clouds,290,2013-01-31 23:15:00
5:35 PM,1.4,-5.8,72,30.00,10.0,WNW,11.5,-,N/A,,Mostly Cloudy,290,2013-01-31 23:35:00
5:55 PM,3.2,-5.8,66,30.01,10.0,WNW,10.4,-,N/A,,Mostly Cloudy,300,2013-01-31 23:55:00
6:15 PM,3.2,-5.8,66,30.02,10.0,WNW,13.8,21.9,N/A,,Scattered Clouds,300,2013-02-01 00:15:00
6:35 PM,3.2,-5.8,66,30.03,10.0,WNW,15.0,18.4,N/A,,Scattered Clouds,300,2013-02-01 00:35:00
7:15 PM,1.4,-7.6,66,30.04,10.0,WNW,12.7,-,N/A,,Clear,300,2013-02-01 01:15:00
7:35 PM,1.4,-7.6,66,30.05,10.0,WNW,12.7,-,N/A,,Clear,300,2013-02-01 01:35:00
7:55 PM,-0.4,-9.4,66,30.06,10.0,NW,13.8,-,N/A,,Clear,310,2013-02-01 01:55:00
8:15 PM,-0.4,-9.4,66,30.06,10.0,NW,10.4,16.1,N/A,,Clear,310,2013-02-01 02:15:00
8:35 PM,-0.4,-9.4,66,30.07,10.0,NW,12.7,17.3,N/A,,Clear,310,2013-02-01 02:35:00
8:55 PM,-0.4,-9.4,66,30.08,10.0,NW,10.4,-,N/A,,Clear,310,2013-02-01 02:55:00
9:15 PM,-2.2,-9.4,71,30.08,10.0,WNW,9.2,-,N/A,,Clear,300,2013-02-01 03:15:00
9:35 PM,-2.2,-11.2,66,30.09,10.0,WNW,11.5,16.1,N/A,,Clear,290,2013-02-01 03:35:00
9:55 PM,-4.0,-11.2,71,30.09,10.0,WNW,10.4,-,N/A,,Clear,290,2013-02-01 03:55:00
10:15 PM,-4.0,-11.2,71,30.10,10.0,WNW,11.5,-,N/A,,Clear,290,2013-02-01 04:15:00
10:35 PM,-4.0,-13.0,65,30.10,10.0,WNW,10.4,-,N/A,,Clear,290,2013-02-01 04:35:00
10:55 PM,-5.8,-13.0,71,30.10,10.0,WNW,10.4,-,N/A,,Clear,290,2013-02-01 04:55:00
11:15 PM,-5.8,-13.0,71,30.11,10.0,WNW,8.1,-,N/A,,Clear,290,2013-02-01 05:15:00
11:35 PM,-5.8,-14.8,65,30.12,10.0,WNW,10.4,-,N/A,,Clear,290,2013-02-01 05:35:00